Regional Weather Roundup
Issued by NWS

Home | Current Version | Previous Version | Graphics & Text | Print | Product List | Glossary On
Versions: 1 2 3 4 5 6 7 8 9 10 11 12 13 14 15 16 17 18 19 20 21 22 23 24 25 26 27 28 29 30 31 32 33 34 35 36 37 38 39 40 41 42 43 44 45 46 47 48 49 50
000
ASUS43 KFSD 210202
RWRSD

WEATHER ROUNDUP FOR SOUTH DAKOTA
NATIONAL WEATHER SERVICE SIOUX FALLS SD
800 PM CST THU NOV 20 2014

NOTE: "FAIR" INDICATES FEW OR NO CLOUDS BELOW 12,000 FEET WITH NO
SIGNIFICANT WEATHER AND/OR OBSTRUCTIONS TO VISIBILITY.


SDZ001>005-009-010-012>017-210300-
NORTHWEST AND NORTH CENTRAL SOUTH DAKOTA

CITY           SKY/WX    TMP DP  RH WIND       PRES   REMARKS
BUFFALO          N/A     24  19  81 S10       29.80S WCI  14
FAITH            N/A     17  14  88 S22       29.92F WCI   0
MOBRIDGE       CLOUDY    23  19  85 S16G23    29.98F WCI  10
$$

SDZ012>016-024>037-041>051-057-063-072>074-210300-
SOUTHWEST AND SOUTH CENTRAL SOUTH DAKOTA

CITY           SKY/WX    TMP DP  RH WIND       PRES   REMARKS
RAPID CTY ARPT CLEAR     20  17  88 SE3       29.90F
PIERRE         PTCLDY    19  15  84 SE17      30.03F WCI   4
CUSTER         CLEAR     28  16  60 SW3       29.90S
ELLSWORTH AFB  CLEAR     24  19  82 S3        29.89F
PHILIP         PTCLDY    17  14  88 E7        29.97F WCI   8
PINE RIDGE     CLEAR     30  23  75 NW3       29.93R
WINNER         FAIR      22  16  78 SE16      30.04F WCI   8
$$

SDZ004>011-016>023-039-040-210300-
NORTHEAST SOUTH DAKOTA

CITY           SKY/WX    TMP DP  RH WIND       PRES   REMARKS
ABERDEEN       PTCLDY     5   1  83 S12       30.11F WCI -11
WATERTOWN      CLEAR      2  -2  83 S5        30.11S WCI  -8
SISSETON         N/A      4   1  88 S5        30.14F WCI  -5
$$

SDZ017-020-022-023-036>040-048>070-210300-
SOUTHEAST SOUTH DAKOTA

CITY           SKY/WX    TMP DP  RH WIND       PRES   REMARKS
SIOUX FALLS    PTCLDY     6   4  91 CALM      30.18R
HURON          CLEAR     12   5  73 SE7       30.14F WCI   1
CHAMBERLAIN    PTCLDY    16  13  90 SE8       30.09F WCI   5
MITCHELL         N/A     13   8  81 SE6       30.17S WCI   4
YANKTON        CLOUDY    19  14  79 E6        30.19F WCI  11
$$

ABBREVIATIONS USED IN REMARKS
   TC - TEMPERATURE IN CELSIUS
  WCI - WIND CHILL INDEX
   HX - HEAT INDEX
  VSB - VISIBILITY



USA.gov is the U.S. government's official web portal to all federal, state and local government web resources and services.